Regional Weather Roundup
Issued by NWS

Home | Current Version | Previous Version | Text Only | Print | Product List | Glossary Off
Versions: 1 2 3 4 5 6 7 8 9 10 11 12 13 14 15 16 17 18 19 20 21 22 23 24 25 26 27 28 29 30 31 32 33 34 35 36 37 38 39 40 41 42 43 44 45 46 47 48 49 50

000
ASUS45 KCYS 250310
RWRWY

WYOMING REGIONAL WEATHER ROUNDUP
NATIONAL WEATHER SERVICE CHEYENNE WY
800 PM MST SAT JAN 24 2015

NOTE:  "FAIR" INDICATES FEW OR NO CLOUDS BELOW 12,000 FEET
WITH NO SIGNIFICANT WEATHER AND/OR OBSTRUCTIONS TO VISIBILITY.

WYZ001-250400-
YELLOWSTONE NATIONAL PARK

CITY           SKY/WX    TMP DP  RH WIND       PRES   REMARKS
LK YELLOWSTONE   N/A     23  20  88 CALM      30.37R
W YELLOWSTONE  NOT AVBL

$$
WYZ002>013-054>058-071-098>099-250400-
NORTHERN WYOMING

CITY           SKY/WX    TMP DP  RH WIND       PRES   REMARKS
JACKSON        CLOUDY    23  21  93 CALM      30.38S
CODY           FAIR      41  25  52 SW10      30.16R
GREYBULL       FAIR      20  18  92 E3        30.17S
WORLAND        FAIR      25  21  85 S12       30.16F WCI  14
SHERIDAN       CLOUDY    38  32  79 NE5       30.12S WCI  34
BUFFALO        LGT RAIN  36  31  82 N15G23    30.12F WCI  27
GILLETTE       FAIR      34  30  85 W14       30.08R WCI  25
HULETT           N/A    N/A N/A N/A MISG        N/A
NEWCASTLE      FAIR      32  28  86 NW12      30.05R WCI  23

$$
WYZ014>020-022>026-101>103-250400-
CENTRAL WYOMING

CITY           SKY/WX    TMP DP  RH WIND       PRES   REMARKS
BIG PINEY      FAIR      31  25  78 NW13      30.33R WCI  21
PINEDALE       FAIR      32  27  80 NW17      30.29F WCI  21
DUBOIS         MOCLDY    32  27  80 N8        30.28R WCI  25
LANDER         FAIR      39  28  64 E8        30.18R WCI  33
RIVERTON       FAIR      39  26  59 NW15      30.18F WCI  31
CASPER         MOCLDY    26  24  92 W5        30.19R WCI  20
DOUGLAS        MOCLDY    35  29  78 NW16      30.13R WCI  25

$$
WYZ021-027>030-104>119-250400-
SOUTHERN WYOMING

CITY           SKY/WX    TMP DP  RH WIND       PRES   REMARKS
EVANSTON       FAIR      31  25  78 S8        30.42R WCI  23
KEMMERER       CLOUDY    30  28  93 W22       30.38R WCI  17
FORT BRIDGER   FAIR      34  31  89 W17G24    30.41R WCI  23
ROCK SPRINGS   FAIR      33  27  78 W31G38    30.31R WCI  19
DIXON          CLOUDY    32  23  69 W6        30.34R WCI  26
RAWLINS        FAIR      32  23  69 W24G31    30.23R WCI  19
SARATOGA       MOCLDY    32  23  69 W17G23    30.24R WCI  21
LARAMIE        MOCLDY    33  23  66 W22       30.14R WCI  21
CHEYENNE       MOCLDY    39  24  55 N15G25    30.10R WCI  31
TORRINGTON     CLOUDY    39  30  70 NW24G33   30.07R WCI  28
PINE BLUFFS    LGT SNOW  34  32  93 NW22G33   30.14R WCI  22

$$


USA.gov is the U.S. government's official web portal to all federal, state and local government web resources and services.